Glenwood, MN

2:31 PM CDT on July 26, 2017 (GMT -0500)
Glenwood Municipal

Weather History for KGHW - January, 2013

Change the Weather History Date:

Tuesday, January 15, 2013

  Actual Average Record
Temperature  
Mean Temperature 10 °F -  
Max Temperature 21 °F 21 °F 41 °F (1973)
Min Temperature 0 °F 0 °F -31 °F (2009)
Degree Days  
Heating Degree Days 54    
Moisture  
Dew Point 6 °F    
Average Humidity 79    
Maximum Humidity 92    
Minimum Humidity 63    
Precipitation  
Precipitation 0.00 in - - ()
Sea Level Pressure  
Sea Level Pressure 30.01 in    
Wind  
Wind Speed 8 mph (SSW)    
Max Wind Speed 23 mph    
Max Gust Speed 25 mph    
Visibility 10 miles    
Events      
Averages and records for this station are not official NWS values.
T = Trace of Precipitation, MM = Missing Value Source: NWS Daily Summary

Daily Weather History Graph

Daily Weather History Graph

Search for Another Location

Airport or City:

Trip Planner

Search our weather history database for the weather conditions in past years. The results will help you decide how hot, cold, wet, or windy it might be!

Date:

Astronomy

Jan. 15, 2013 Rise Set
Actual Time 7:57 AM CST 5:04 PM CST
Civil Twilight 7:24 AM CST 5:37 PM CST
Nautical Twilight 6:47 AM CST 6:14 PM CST
Astronomical Twilight 6:12 AM CST 6:49 PM CST
Moon 9:48 AM CST (1/15) 10:12 PM CST (1/15)
Length of Visible Light 10h 12m
Length of Day
9h 06m
Waxing Crescent, 19% of the Moon is Illuminated
Jan 15
Waxing Crescent
Jan 18
First Quarter
Jan 26
Full
Feb 3
Last Quarter
Feb 10
New

Hourly Weather History & Observations

Time (CST) Temp. Windchill Dew Point Humidity Pressure Visibility Wind Dir Wind Speed Gust Speed Precip Events Conditions
12:13 AM 3.2 °F -7.8 °F 1.4 °F 92% 30.19 in 10.0 mi WSW 5.8 mph - N/A   Clear
12:33 AM 3.2 °F -6.2 °F -0.4 °F 85% 30.18 in 10.0 mi SW 4.6 mph - N/A   Clear
12:54 AM 1.4 °F -9.9 °F -0.4 °F 92% 30.18 in 10.0 mi SW 5.8 mph - N/A   Clear
1:33 AM 1.4 °F -6.2 °F -2.2 °F 85% 30.18 in 10.0 mi WSW 3.5 mph - N/A   Clear
1:54 AM 3.2 °F -9.1 °F 1.4 °F 92% 30.17 in 10.0 mi West 6.9 mph - N/A   Clear
2:13 AM 1.4 °F -6.2 °F -0.4 °F 92% 30.17 in 10.0 mi SW 3.5 mph - N/A   Clear
2:33 AM 1.4 °F -6.2 °F -0.4 °F 92% 30.18 in 10.0 mi SW 3.5 mph - N/A   Clear
2:52 AM 1.4 °F -8.3 °F -2.2 °F 85% 30.18 in 10.0 mi SSW 4.6 mph - N/A   Clear
3:13 AM -0.4 °F -8.3 °F -2.2 °F 92% 30.17 in 10.0 mi SW 3.5 mph - N/A   Clear
3:33 AM 1.4 °F -6.2 °F -2.2 °F 85% 30.17 in 10.0 mi SSW 3.5 mph - N/A   Clear
3:53 AM -0.4 °F -8.3 °F -4.0 °F 85% 30.16 in 10.0 mi SSW 3.5 mph - N/A   Clear
4:13 AM -0.4 °F - -4.0 °F 85% 30.16 in 10.0 mi Calm Calm - N/A   Scattered Clouds
4:33 AM -0.4 °F -8.3 °F -2.2 °F 92% 30.15 in 10.0 mi SSE 3.5 mph - N/A   Scattered Clouds
4:53 AM -0.4 °F -10.4 °F -4.0 °F 85% 30.14 in 10.0 mi South 4.6 mph - N/A   Scattered Clouds
5:13 AM -0.4 °F -10.4 °F -2.2 °F 92% 30.13 in 10.0 mi South 4.6 mph - N/A   Mostly Cloudy
5:34 AM -0.4 °F -8.3 °F -2.2 °F 92% 30.13 in 10.0 mi South 3.5 mph - N/A   Overcast
5:53 AM 1.4 °F - -0.4 °F 92% 30.12 in 10.0 mi Calm Calm - N/A   Overcast
6:13 AM 3.2 °F -4.2 °F 1.4 °F 92% 30.12 in 10.0 mi South 3.5 mph - N/A   Overcast
6:34 AM 5.0 °F -5.6 °F 1.4 °F 85% 30.12 in 10.0 mi South 5.8 mph - N/A   Overcast
6:53 AM 6.8 °F -4.8 °F 3.2 °F 85% 30.12 in 10.0 mi South 6.9 mph - N/A   Overcast
7:13 AM 6.8 °F -3.5 °F 3.2 °F 85% 30.12 in 10.0 mi South 5.8 mph - N/A   Overcast
7:34 AM 6.8 °F -3.5 °F 5.0 °F 92% 30.12 in 10.0 mi SSE 5.8 mph - N/A   Overcast
7:53 AM 8.6 °F -1.3 °F 5.0 °F 85% 30.11 in 10.0 mi SSE 5.8 mph - N/A   Overcast
8:13 AM 8.6 °F 0.1 °F 6.8 °F 92% 30.11 in 10.0 mi SSE 4.6 mph - N/A   Overcast
8:34 AM 10.4 °F -0.4 °F 6.8 °F 85% 30.11 in 10.0 mi South 6.9 mph - N/A   Overcast
8:53 AM 10.4 °F 0.8 °F 6.8 °F 85% 30.11 in 10.0 mi SSE 5.8 mph - N/A   Overcast
9:13 AM 10.4 °F -3.3 °F 6.8 °F 85% 30.11 in 10.0 mi South 10.4 mph - N/A   Overcast
9:34 AM 10.4 °F -2.4 °F 6.8 °F 85% 30.10 in 10.0 mi South 9.2 mph - N/A   Scattered Clouds
9:53 AM 10.4 °F -0.4 °F 6.8 °F 85% 30.10 in 10.0 mi South 6.9 mph - N/A   Clear
10:13 AM 12.2 °F -1.0 °F 6.8 °F 79% 30.09 in 10.0 mi South 10.4 mph - N/A   Clear
10:33 AM 14.0 °F 2.9 °F 6.8 °F 73% 30.09 in 10.0 mi SSW 8.1 mph - N/A   Clear
10:53 AM 14.0 °F 1.2 °F 6.8 °F 73% 30.08 in 10.0 mi SSW 10.4 mph - N/A   Unknown
11:13 AM 14.0 °F 0.5 °F 6.8 °F 73% 30.07 in 10.0 mi SSW 11.5 mph - N/A   Unknown
11:33 AM 14.0 °F 0.5 °F 6.8 °F 73% 30.06 in 10.0 mi SSW 11.5 mph - N/A   Clear
11:53 AM 15.8 °F 4.2 °F 6.8 °F 68% 30.04 in 10.0 mi SSW 9.2 mph - N/A   Clear
12:13 PM 15.8 °F 0.3 °F 6.8 °F 68% 30.03 in 10.0 mi SSW 16.1 mph - N/A   Clear
12:33 PM 15.8 °F 2.7 °F 6.8 °F 68% 30.02 in 10.0 mi SSW 11.5 mph - N/A   Clear
12:53 PM 17.6 °F 4.3 °F 6.8 °F 63% 30.02 in 10.0 mi SSW 12.7 mph - N/A   Clear
1:13 PM 17.6 °F 7.3 °F 8.6 °F 68% 30.01 in 10.0 mi SSW 8.1 mph - N/A   Clear
1:33 PM 17.6 °F 3.7 °F 8.6 °F 68% 29.99 in 10.0 mi SSW 13.8 mph - N/A   Clear
1:53 PM 17.6 °F 2.7 °F 8.6 °F 68% 29.98 in 10.0 mi South 16.1 mph - N/A   Clear
2:13 PM 19.4 °F 6.0 °F 10.4 °F 68% 29.97 in 10.0 mi SSW 13.8 mph - N/A   Clear
2:33 PM 19.4 °F 5.5 °F 10.4 °F 68% 29.97 in 10.0 mi SSW 15.0 mph - N/A   Clear
2:53 PM 19.4 °F 4.5 °F 10.4 °F 68% 29.97 in 10.0 mi SSW 17.3 mph - N/A   Clear
3:33 PM 19.4 °F 5.0 °F 10.4 °F 68% 29.97 in 10.0 mi South 16.1 mph - N/A   Clear
3:53 PM 17.6 °F 1.7 °F 10.4 °F 73% 29.97 in 10.0 mi South 18.4 mph - N/A   Clear
4:33 PM 17.6 °F 2.7 °F 10.4 °F 73% 29.97 in 10.0 mi South 16.1 mph - N/A   Clear
4:53 PM 17.6 °F 3.2 °F 10.4 °F 73% 29.95 in 10.0 mi South 15.0 mph - N/A   Clear
5:14 PM 17.6 °F 3.2 °F 10.4 °F 73% 29.94 in 10.0 mi South 15.0 mph - N/A   Clear
5:33 PM 17.6 °F 3.2 °F 10.4 °F 73% 29.93 in 10.0 mi South 15.0 mph - N/A   Clear
5:53 PM 15.8 °F 2.7 °F 12.2 °F 86% 29.93 in 10.0 mi South 11.5 mph - N/A   Clear
6:14 PM 17.6 °F 3.2 °F 12.2 °F 79% 29.91 in 10.0 mi South 15.0 mph - N/A   Clear
6:33 PM 17.6 °F 1.3 °F 12.2 °F 79% 29.90 in 10.0 mi South 19.6 mph - N/A   Clear
6:53 PM 17.6 °F 3.2 °F 12.2 °F 79% 29.88 in 10.0 mi South 15.0 mph - N/A   Clear
7:13 PM 17.6 °F 3.2 °F 12.2 °F 79% 29.88 in 10.0 mi SSW 15.0 mph - N/A   Clear
7:33 PM 17.6 °F 2.7 °F 12.2 °F 79% 29.87 in 10.0 mi SSW 16.1 mph - N/A   Clear
7:54 PM 17.6 °F 1.7 °F 10.4 °F 73% 29.84 in 10.0 mi SSW 18.4 mph - N/A   Clear
8:13 PM 17.6 °F 1.3 °F 10.4 °F 73% 29.84 in 10.0 mi South 19.6 mph - N/A   Clear
8:33 PM 17.6 °F 0.9 °F 10.4 °F 73% 29.82 in 10.0 mi South 20.7 mph - N/A   Clear
8:54 PM 17.6 °F 1.3 °F 10.4 °F 73% 29.80 in 10.0 mi South 19.6 mph - N/A   Clear
9:13 PM 17.6 °F 1.7 °F 10.4 °F 73% 29.80 in 10.0 mi SSW 18.4 mph - N/A   Scattered Clouds
9:33 PM 17.6 °F 1.7 °F 10.4 °F 73% 29.78 in 10.0 mi SSW 18.4 mph - N/A   Scattered Clouds
9:54 PM 19.4 °F 3.6 °F 12.2 °F 74% 29.75 in 10.0 mi SSW 19.6 mph 25.3 mph N/A   Overcast
10:13 PM 19.4 °F 2.5 °F 12.2 °F 74% 29.74 in 10.0 mi SSW 23.0 mph - N/A   Overcast
10:33 PM 19.4 °F 4.1 °F 12.2 °F 74% 29.73 in 10.0 mi SSW 18.4 mph 24.2 mph N/A   Overcast
10:53 PM 19.4 °F 4.5 °F 12.2 °F 74% 29.72 in 10.0 mi South 17.3 mph 23.0 mph N/A   Overcast
11:13 PM 21.2 °F 6.8 °F 12.2 °F 68% 29.71 in 10.0 mi SSW 17.3 mph - N/A   Overcast
11:33 PM 21.2 °F 6.4 °F 12.2 °F 68% 29.70 in 10.0 mi SSW 18.4 mph - N/A   Overcast